Location: Demre
(36.2444°N, 29.9850°E)
Time: 05:45:20
(UTC+00:00)

Cosmos 1271 Rocket - Pass Details

Date: 11 March 2026
Orbit: 425 x 450 km, 81.2° (Epoch: 21 April)

Event Time Altitude Azimuth Distance (km) Brightness Sun altitude
Rises 16:32:40 0° 10° (N) 2,449 6.0 -6.6°
Reaches altitude 10° 16:35:14 10° 30° (NNE) 1,578 4.9 -7.2°
Maximum altitude 16:37:39 18° 75° (ENE) 1,181 3.9 -7.6°
Drops below altitude 10° 16:40:04 10° 119° (ESE) 1,579 4.6 -8.1°
Enters shadow 16:41:13 - 131° (SE) 1,945 5.2 -8.4°
